EN

Hourly Weather Almunecar

Today, 21 January, Thursday

Time Temperature Precipitation Wind Pressure Humidity
00:00 +11°C° 0 mm 6 mps 761 mmHg 84%
01:00 +12°C° 0 mm 5 mps 761 mmHg 84%
02:00 +12°C° 0 mm 5 mps 761 mmHg 85%
03:00 +12°C° 0 mm 5 mps 761 mmHg 85%
04:00 +12°C° 0 mm 4 mps 762 mmHg 85%
05:00 +12°C° 0 mm 4 mps 762 mmHg 86%
06:00 +12°C° 0 mm 5 mps 762 mmHg 87%
07:00 +13°C° 0 mm 4 mps 762 mmHg 85%
08:00 +13°C° 0 mm 4 mps 763 mmHg 83%
09:00 +14°C° 0 mm 4 mps 763 mmHg 81%
10:00 +15°C° 0 mm 4 mps 763 mmHg 77%
11:00 +16°C° 0 mm 5 mps 763 mmHg 73%
12:00 +16°C° 0 mm 6 mps 763 mmHg 69%
13:00 +16°C° 0 mm 6 mps 763 mmHg 71%
14:00 +16°C° 0 mm 6 mps 762 mmHg 73%
15:00 +16°C° 0 mm 7 mps 761 mmHg 74%
16:00 +15°C° 0 mm 7 mps 762 mmHg 78%
17:00 +15°C° 0 mm 7 mps 762 mmHg 83%
18:00 +14°C° 0 mm 7 mps 762 mmHg 87%
19:00 +14°C° 0 mm 6 mps 762 mmHg 85%
20:00 +14°C° 0 mm 6 mps 762 mmHg 84%
21:00 +13°C° 0 mm 6 mps 762 mmHg 82%
22:00 +13°C° 0 mm 6 mps 762 mmHg 82%
23:00 +13°C° 0 mm 6 mps 762 mmHg 82%

Tomorrow, 22 January, Friday

Time Temperature Precipitation Wind Pressure Humidity
00:00 +13°C° 0 mm 6 mps 761 mmHg 82%
01:00 +13°C° 0 mm 6 mps 761 mmHg 83%
02:00 +13°C° 0 mm 6 mps 760 mmHg 85%
03:00 +13°C° 0 mm 6 mps 760 mmHg 86%
04:00 +13°C° 0.2 mm 6 mps 760 mmHg 88%
05:00 +14°C° 0.2 mm 6 mps 760 mmHg 90%
06:00 +14°C° 0.2 mm 6 mps 759 mmHg 92%
07:00 +14°C° 0.1 mm 6 mps 759 mmHg 91%
08:00 +15°C° 0.1 mm 5 mps 760 mmHg 89%
09:00 +15°C° 0.1 mm 5 mps 760 mmHg 87%
10:00 +16°C° 0 mm 6 mps 760 mmHg 83%
11:00 +16°C° 0 mm 7 mps 760 mmHg 78%
12:00 +17°C° 0 mm 8 mps 760 mmHg 73%
13:00 +16°C° 0 mm 8 mps 760 mmHg 70%
14:00 +16°C° 0 mm 9 mps 759 mmHg 67%
15:00 +15°C° 0 mm 9 mps 759 mmHg 64%
16:00 +13°C° 0 mm 9 mps 760 mmHg 68%
17:00 +12°C° 0 mm 9 mps 760 mmHg 73%
18:00 +11°C° 0 mm 8 mps 761 mmHg 77%
19:00 +11°C° 0 mm 8 mps 761 mmHg 79%
20:00 +11°C° 0 mm 8 mps 762 mmHg 80%
21:00 +10°C° 0 mm 8 mps 763 mmHg 81%
22:00 +10°C° 0 mm 8 mps 763 mmHg 81%
23:00 +10°C° 0 mm 8 mps 763 mmHg 81%

Day after tomorrow, 23 January, Saturday

Time Temperature Precipitation Wind Pressure Humidity
00:00 +10°C° 0 mm 8 mps 763 mmHg 81%
01:00 +10°C° 0 mm 8 mps 763 mmHg 80%
02:00 +9°C° 0 mm 8 mps 763 mmHg 79%
03:00 +9°C° 0 mm 8 mps 763 mmHg 78%
04:00 +9°C° 0 mm 8 mps 763 mmHg 78%
05:00 +7°C° 0 mm 8 mps 763 mmHg 78%
06:00 +8°C° 0 mm 7 mps 763 mmHg 77%
07:00 +9°C° 0 mm 7 mps 763 mmHg 76%
08:00 +9°C° 0 mm 7 mps 763 mmHg 74%
09:00 +10°C° 0 mm 7 mps 763 mmHg 73%
10:00 +11°C° 0 mm 7 mps 763 mmHg 70%
11:00 +12°C° 0 mm 7 mps 763 mmHg 68%
12:00 +14°C° 0 mm 7 mps 763 mmHg 65%
13:00 +14°C° 0 mm 7 mps 762 mmHg 66%
14:00 +14°C° 0 mm 7 mps 762 mmHg 67%
15:00 +14°C° 0 mm 7 mps 761 mmHg 69%
16:00 +14°C° 0 mm 7 mps 761 mmHg 73%
17:00 +14°C° 0 mm 6 mps 761 mmHg 77%
18:00 +13°C° 0 mm 6 mps 761 mmHg 81%
19:00 +12°C° 0 mm 7 mps 761 mmHg 82%
20:00 +12°C° 0 mm 7 mps 761 mmHg 83%
21:00 +12°C° 0 mm 8 mps 761 mmHg 84%
22:00 +13°C° 0.1 mm 8 mps 760 mmHg 84%
23:00 +13°C° 0.1 mm 8 mps 760 mmHg 85%

24 January, Sunday

Time Temperature Precipitation Wind Pressure Humidity
00:00 +13°C° 0.1 mm 8 mps 759 mmHg 86%
01:00 +13°C° 0.1 mm 8 mps 759 mmHg 87%
02:00 +13°C° 0.1 mm 8 mps 758 mmHg 88%
03:00 +13°C° 0.1 mm 8 mps 758 mmHg 89%
04:00 +13°C° 0.3 mm 8 mps 758 mmHg 90%
05:00 +13°C° 0.3 mm 8 mps 758 mmHg 91%
06:00 +13°C° 0.3 mm 8 mps 758 mmHg 92%
07:00 +15°C° 0.1 mm 8 mps 759 mmHg 91%
08:00 +15°C° 0.1 mm 8 mps 759 mmHg 89%
09:00 +15°C° 0.1 mm 8 mps 759 mmHg 88%
10:00 +16°C° 0 mm 8 mps 760 mmHg 80%
11:00 +17°C° 0 mm 8 mps 760 mmHg 72%
12:00 +17°C° 0 mm 8 mps 760 mmHg 64%
13:00 +17°C° 0 mm 8 mps 759 mmHg 62%
14:00 +17°C° 0 mm 8 mps 759 mmHg 59%
15:00 +17°C° 0 mm 8 mps 759 mmHg 57%
16:00 +16°C° 0 mm 8 mps 759 mmHg 59%
17:00 +15°C° 0 mm 7 mps 759 mmHg 60%
18:00 +14°C° 0 mm 6 mps 759 mmHg 62%
19:00 +14°C° 0 mm 6 mps 760 mmHg 61%
20:00 +14°C° 0 mm 6 mps 760 mmHg 59%
21:00 +14°C° 0 mm 6 mps 760 mmHg 58%
22:00 +14°C° 0 mm 6 mps 760 mmHg 59%
23:00 +14°C° 0 mm 6 mps 760 mmHg 60%

25 January, Monday

Time Temperature Precipitation Wind Pressure Humidity
00:00 +14°C° 0 mm 5 mps 761 mmHg 61%
01:00 +13°C° 0 mm 5 mps 761 mmHg 64%
02:00 +13°C° 0 mm 6 mps 761 mmHg 67%
03:00 +13°C° 0 mm 6 mps 761 mmHg 69%
04:00 +13°C° 0 mm 5 mps 761 mmHg 71%
05:00 +13°C° 0 mm 5 mps 761 mmHg 72%
06:00 +13°C° 0 mm 4 mps 761 mmHg 73%
07:00 +14°C° 0 mm 4 mps 761 mmHg 72%
08:00 +14°C° 0 mm 4 mps 762 mmHg 71%
09:00 +16°C° 0 mm 3 mps 763 mmHg 69%
10:00 +16°C° 0 mm 3 mps 763 mmHg 67%
11:00 +17°C° 0 mm 3 mps 763 mmHg 64%
12:00 +18°C° 0 mm 3 mps 763 mmHg 62%
13:00 +18°C° 0 mm 3 mps 763 mmHg 63%
14:00 +18°C° 0 mm 4 mps 763 mmHg 64%
15:00 +18°C° 0 mm 4 mps 762 mmHg 65%
16:00 +17°C° 0 mm 4 mps 763 mmHg 71%
17:00 +16°C° 0 mm 3 mps 763 mmHg 76%
18:00 +14°C° 0 mm 3 mps 763 mmHg 82%
19:00 +14°C° 0 mm 3 mps 764 mmHg 82%
20:00 +14°C° 0 mm 3 mps 764 mmHg 82%
21:00 +14°C° 0 mm 3 mps 765 mmHg 82%
22:00 +14°C° 0 mm 3 mps 765 mmHg 82%
23:00 +15°C° 0 mm 2 mps 765 mmHg 83%

26 January, Tuesday

Time Temperature Precipitation Wind Pressure Humidity
00:00 +15°C° 0 mm 2 mps 765 mmHg 83%
01:00 +15°C° 0 mm 2 mps 765 mmHg 84%
02:00 +15°C° 0 mm 2 mps 765 mmHg 84%
03:00 +15°C° 0 mm 1 mps 765 mmHg 85%
04:00 +15°C° 0 mm 2 mps 765 mmHg 86%
05:00 +15°C° 0 mm 2 mps 765 mmHg 86%
06:00 +13°C° 0 mm 3 mps 765 mmHg 87%
07:00 +14°C° 0 mm 3 mps 766 mmHg 84%
08:00 +16°C° 0 mm 3 mps 766 mmHg 81%
09:00 +17°C° 0 mm 3 mps 766 mmHg 78%
10:00 +18°C° 0 mm 4 mps 766 mmHg 75%
11:00 +19°C° 0 mm 4 mps 767 mmHg 71%
12:00 +20°C° 0 mm 4 mps 767 mmHg 68%
13:00 +20°C° 0 mm 4 mps 766 mmHg 67%
14:00 +20°C° 0 mm 5 mps 766 mmHg 67%
15:00 +21°C° 0 mm 5 mps 766 mmHg 66%
16:00 +20°C° 0 mm 5 mps 766 mmHg 70%
17:00 +17°C° 0 mm 5 mps 766 mmHg 74%
18:00 +16°C° 0 mm 5 mps 766 mmHg 79%
19:00 +16°C° 0 mm 5 mps 767 mmHg 79%
20:00 +16°C° 0 mm 5 mps 767 mmHg 79%
21:00 +17°C° 0 mm 4 mps 767 mmHg 79%
22:00 +17°C° 0 mm 4 mps 767 mmHg 80%
23:00 +15°C° 0 mm 4 mps 767 mmHg 81%
Show more